METEOR 2-11 DEB, 42456

Orbit data source: Space-Track

METEOR 2-11 DEB, 42456 is space debris in LEO originally from a launch on Thu, 05 Jul 1984 UTC launched from the Plesetsk Missile And Space Complex (PKMTR). Debris objects in space refer to the collection of defunct objects orbiting the Earth. Examples of debris include non-operational satellites, rocket bodies, and fragments generated from explosions, collisions, or faulty payload assembly.

Loading next visibility...
Identifier
42456, 1984-072S
Orbit
LEO
Country
Flag of CISCIS
Related business
Manufacturer
Unknown
Mission
Spacecraft
Bus & Motor
Unknown
Mass
Unknown
Launch date (UTC)
1984-07-05 (41 years ago)
Launch vehicle
Unknown
Launch site
Plesetsk Missile And Space Complex (PKMTR)
Object type
Payload
Rocket body
Debris
Shape & HBR
Unknown shape, 0.1 m
Radar Cross Section
Small (<0.1 m²)

Expand to show TLE details & history
Last TLE update: 2 weeks ago

TLE from 2 weeks ago
0 METEOR 2-11 DEB
1 42456U 84072S   25335.87317464  .00001977  00000-0  14452-2 0  9992
2 42456  82.5367 184.4724 0039277 221.0870 138.7338 13.95164179560136
Epoch: 2025-12-01T20:57Z
TLE epoch observation values (Epoch: 2025-12-01T20:57:22.288Z)
Latitude
0.00004°
Longitude
159.16311°
Altitude
935.077 km
Speed
7.373 km/s
True Right ascension
12h 17m 53s
True Declination
0° 00' 00"
Sunlit
Object was in daylight at epoch
Visualization orbit readout
Latitude
Unknown
Longitude
Unknown
Altitude
Unknown
Speed
Unknown
Apparent Right ascension
Unknown
Apparent Declination
Unknown
Sunlit
N/A
Visualization observer readout
Local Sidereal Time
02:23:56
Azimuth
Unknown
Elevation
Unknown
Doppler factor
Unknown
Orbital elements
Apogee altitude
936.343 km
Perigee altitude
879.109 km
Semi-major axis
7,285.863 km
Eccentricity
0.00393
Inclination
82.5367°
RAAN
184.4724°
Arg. of periapsis
221.087°
True anomaly
139.02956°
Mean anomaly
138.7338°
Eccentric anomaly
138.88179°
Mean motion
3.48997 °/min
Orbital period
103.15 mins
BSTAR
0.0014452
Loading maneuver chart data...
Computing Atmospheric mass density...
Loading historical data...
Loading historical data...
Loading historical data...
Loading historical data...
Loading historical data...
Loading historical data...
Loading historical data...

Documentation

Showing up to 5 results
|